| time (UTC) | temp C | wind direction | speed KPH | gust KPH | rain 1hr cm | rain 24hr cm | rain mn cm | humidity % | barometer mb |
| 20260905211846 | 21 | 272 | 6.4 | 12.9 | 0.00 | 0.10 | 0.00 | 68 | 1024.8 |
| 20260905211346 | 21 | 232 | 6.4 | 14.5 | 0.00 | 0.10 | 0.00 | 68 | 1024.8 |
| 20260905210844 | 21 | 242 | 6.4 | 14.5 | 0.00 | 0.10 | 0.00 | 69 | 1024.8 |
| 20260905210344 | 21 | 265 | 4.8 | 12.9 | 0.00 | 0.10 | 0.00 | 69 | 1024.8 |
| 20260905205844 | 21 | 254 | 3.2 | 12.9 | 0.00 | 0.10 | 0.00 | 69 | 1024.9 |
| 20260905205343 | 20 | 157 | 3.2 | 11.3 | 0.00 | 0.10 | 0.00 | 68 | 1024.8 |
| 20260905204844 | 20 | 214 | 3.2 | 11.3 | 0.00 | 0.10 | 0.00 | 71 | 1024.8 |
| 20260905204343 | 20 | 310 | 3.2 | 9.7 | 0.00 | 0.10 | 0.00 | 67 | 1024.9 |
| 20260905203843 | 20 | 156 | 3.2 | 8.0 | 0.00 | 0.10 | 0.00 | 69 | 1024.9 |
| 20260905203341 | 20 | 213 | 3.2 | 8.0 | 0.00 | 0.10 | 0.00 | 72 | 1025.0 |
| 20260905202841 | 20 | 262 | 1.6 | 6.4 | 0.00 | 0.10 | 0.00 | 70 | 1025.0 |
| 20260905202341 | 20 | 326 | 3.2 | 8.0 | 0.00 | 0.10 | 0.00 | 70 | 1025.0 |
| 20260905201839 | 20 | 315 | 3.2 | 8.0 | 0.00 | 0.10 | 0.00 | 71 | 1025.0 |
| 20260905201337 | 20 | 327 | 3.2 | 9.7 | 0.00 | 0.10 | 0.00 | 70 | 1025.1 |
| 20260905200838 | 20 | 0 | 3.2 | 9.7 | 0.00 | 0.10 | 0.00 | 70 | 1025.2 |
| 20260905200333 | 20 | 301 | 3.2 | 9.7 | 0.00 | 0.10 | 0.00 | 70 | 1025.2 |
| 20260905195833 | 20 | 45 | 4.8 | 11.3 | 0.00 | 0.10 | 0.00 | 71 | 1025.1 |
| 20260905195331 | 21 | 25 | 3.2 | 11.3 | 0.00 | 0.10 | 0.00 | 71 | 1025.1 |
| 20260905194831 | 21 | 313 | 1.6 | 4.8 | 0.00 | 0.10 | 0.00 | 70 | 1025.2 |
| 20260905194332 | 20 | 116 | 1.6 | 4.8 | 0.00 | 0.13 | 0.00 | 75 | 1025.3 |
| 20260905193832 | 20 | 192 | 1.6 | 8.0 | 0.00 | 0.13 | 0.00 | 70 | 1025.4 |
| 20260905193329 | 20 | 190 | 3.2 | 9.7 | 0.00 | 0.13 | 0.00 | 72 | 1025.5 |
| 20260905192827 | 20 | 192 | 1.6 | 9.7 | 0.00 | 0.13 | 0.00 | 73 | 1025.6 |
| 20260905192329 | 20 | 126 | 1.6 | 6.4 | 0.00 | 0.13 | 0.00 | 75 | 1025.7 |
| 20260905191827 | 20 | 69 | 1.6 | 4.8 | 0.00 | 0.13 | 0.00 | 76 | 1025.6 |
| 20260905191325 | 19 | 52 | 1.6 | 4.8 | 0.00 | 0.13 | 0.00 | 77 | 1025.7 |
| 20260905190825 | 19 | 48 | 1.6 | 4.8 | 0.00 | 0.13 | 0.00 | 76 | 1025.8 |
| 20260905190320 | 18 | 217 | 1.6 | 6.4 | 0.00 | 0.13 | 0.00 | 78 | 1025.7 |
| 20260905185819 | 18 | 221 | 1.6 | 6.4 | 0.00 | 0.13 | 0.00 | 77 | 1025.8 |
| 20260905185318 | 18 | 180 | 1.6 | 8.0 | 0.00 | 0.13 | 0.00 | 79 | 1025.9 |
| 20260905184819 | 18 | 188 | 1.6 | 8.0 | 0.00 | 0.13 | 0.00 | 80 | 1025.8 |
| 20260905184319 | 18 | 214 | 1.6 | 8.0 | 0.00 | 0.13 | 0.00 | 80 | 1025.9 |
| 20260905183820 | 17 | 146 | 1.6 | 6.4 | 0.00 | 0.13 | 0.00 | 81 | 1025.9 |
| 20260905183314 | 17 | 61 | 3.2 | 6.4 | 0.00 | 0.13 | 0.00 | 81 | 1025.9 |
| 20260905182812 | 17 | 128 | 1.6 | 6.4 | 0.00 | 0.13 | 0.00 | 84 | 1025.9 |
| 20260905182313 | 17 | 203 | 1.6 | 6.4 | 0.00 | 0.13 | 0.00 | 83 | 1025.9 |
| 20260905181814 | 17 | 259 | 1.6 | 6.4 | 0.00 | 0.13 | 0.00 | 84 | 1025.9 |
| 20260905181313 | 17 | 224 | 0.0 | 1.6 | 0.00 | 0.13 | 0.00 | 85 | 1025.9 |
| 20260905180814 | 16 | 225 | 0.0 | 3.2 | 0.00 | 0.13 | 0.00 | 85 | 1025.9 |
| 20260905180310 | 16 | 225 | 1.6 | 4.8 | 0.00 | 0.13 | 0.00 | 84 | 1025.9 |
| 20260905175809 | 16 | 225 | 1.6 | 4.8 | 0.00 | 0.13 | 0.00 | 85 | 1025.9 |
| 20260905175307 | 16 | 232 | 0.0 | 4.8 | 0.00 | 0.13 | 0.00 | 86 | 1025.9 |
| 20260905174807 | 16 | 232 | 0.0 | 4.8 | 0.00 | 0.13 | 0.00 | 85 | 1025.9 |
| 20260905174307 | 16 | 167 | 0.0 | 3.2 | 0.00 | 0.13 | 0.00 | 86 | 1025.9 |
| 20260905173806 | 16 | 68 | 0.0 | 1.6 | 0.00 | 0.13 | 0.00 | 87 | 1025.9 |
| 20260905173304 | 16 | 69 | 0.0 | 1.6 | 0.00 | 0.13 | 0.00 | 86 | 1026.0 |
| 20260905172804 | 16 | 69 | 0.0 | 1.6 | 0.00 | 0.13 | 0.00 | 87 | 1026.0 |
| 20260905172305 | 16 | 70 | 0.0 | 1.6 | 0.00 | 0.13 | 0.00 | 87 | 1025.9 |
| 20260905171803 | 15 | 69 | 0.0 | 1.6 | 0.00 | 0.13 | 0.00 | 87 | 1025.9 |
| 20260905171301 | 15 | 69 | 0.0 | 1.6 | 0.00 | 0.13 | 0.00 | 87 | 1025.9 |
| 20260905170801 | 15 | 69 | 0.0 | 1.6 | 0.00 | 0.13 | 0.00 | 87 | 1025.9 |
| 20260905170255 | 15 | 69 | 0.0 | 1.6 | 0.00 | 0.13 | 0.00 | 87 | 1025.8 |
| 20260905165754 | 15 | 69 | 0.0 | 3.2 | 0.00 | 0.13 | 0.00 | 88 | 1025.9 |
| 20260905165251 | 15 | 69 | 0.0 | 3.2 | 0.00 | 0.13 | 0.00 | 88 | 1025.8 |
| 20260905164748 | 15 | 66 | 0.0 | 1.6 | 0.00 | 0.13 | 0.00 | 88 | 1025.8 |
| 20260905164249 | 15 | 67 | 0.0 | 3.2 | 0.00 | 0.13 | 0.00 | 88 | 1025.8 |
| 20260905163745 | 15 | 65 | 0.0 | 3.2 | 0.00 | 0.13 | 0.00 | 88 | 1025.8 |
| 20260905163244 | 15 | 131 | 0.0 | 1.6 | 0.00 | 0.13 | 0.00 | 88 | 1025.7 |
| 20260905162746 | 15 | 131 | 0.0 | 1.6 | 0.00 | 0.13 | 0.00 | 88 | 1025.8 |
| 20260905162245 | 15 | 130 | 0.0 | 1.6 | 0.00 | 0.13 | 0.00 | 88 | 1025.8 |
| 20260905161743 | 15 | 130 | 0.0 | 3.2 | 0.00 | 0.13 | 0.00 | 89 | 1025.9 |
| 20260905161244 | 15 | 131 | 0.0 | 3.2 | 0.00 | 0.13 | 0.00 | 89 | 1025.9 |
| 20260905160739 | 14 | 111 | 0.0 | 3.2 | 0.00 | 0.13 | 0.00 | 89 | 1025.9 |
| 20260905160239 | 14 | 109 | 0.0 | 3.2 | 0.00 | 0.13 | 0.00 | 89 | 1025.9 |
| 20260905155737 | 14 | 111 | 0.0 | 3.2 | 0.00 | 0.13 | 0.00 | 90 | 1026.0 |
| 20260905155236 | 14 | 102 | 0.0 | 4.8 | 0.00 | 0.13 | 0.00 | 89 | 1026.0 |
| 20260905154735 | 14 | 104 | 0.0 | 4.8 | 0.00 | 0.13 | 0.00 | 90 | 1025.9 |
| 20260905154235 | 13 | 118 | 0.0 | 4.8 | 0.00 | 0.13 | 0.00 | 90 | 1025.9 |
| 20260905153732 | 13 | 119 | 0.0 | 6.4 | 0.00 | 0.13 | 0.00 | 90 | 1025.9 |
| 20260905153233 | 13 | 119 | 0.0 | 6.4 | 0.00 | 0.13 | 0.00 | 90 | 1025.8 |
| 20260905152734 | 13 | 101 | 0.0 | 4.8 | 0.00 | 0.13 | 0.00 | 90 | 1025.7 |
| 20260905152231 | 13 | 104 | 0.0 | 4.8 | 0.00 | 0.13 | 0.00 | 90 | 1025.8 |
| 20260905151728 | 13 | 84 | 0.0 | 3.2 | 0.00 | 0.13 | 0.00 | 90 | 1025.7 |
| 20260905151228 | 13 | 78 | 0.0 | 3.2 | 0.00 | 0.13 | 0.00 | 91 | 1025.7 |
| 20260905150726 | 13 | 78 | 0.0 | 3.2 | 0.00 | 0.13 | 0.00 | 91 | 1025.7 |
| 20260905150225 | 13 | 78 | 0.0 | 3.2 | 0.00 | 0.13 | 0.00 | 91 | 1025.8 |
| 20260905145725 | 13 | 78 | 1.6 | 3.2 | 0.00 | 0.13 | 0.00 | 91 | 1025.8 |
| 20260905145224 | 13 | 79 | 1.6 | 4.8 | 0.00 | 0.15 | 0.00 | 92 | 1025.8 |
| 20260905144726 | 13 | 78 | 1.6 | 6.4 | 0.00 | 0.15 | 0.00 | 92 | 1025.8 |
| 20260905144224 | 13 | 79 | 1.6 | 6.4 | 0.00 | 0.18 | 0.00 | 91 | 1025.8 |
| 20260905143726 | 12 | 104 | 1.6 | 6.4 | 0.00 | 0.18 | 0.00 | 91 | 1025.8 |
| 20260905143222 | 12 | 104 | 0.0 | 6.4 | 0.00 | 0.18 | 0.00 | 92 | 1025.8 |
| 20260905142721 | 12 | 91 | 0.0 | 3.2 | 0.00 | 0.18 | 0.00 | 92 | 1025.9 |
| 20260905142220 | 12 | 90 | 0.0 | 3.2 | 0.00 | 0.18 | 0.00 | 92 | 1025.9 |
| 20260905141721 | 12 | 90 | 0.0 | 0.0 | 0.00 | 0.18 | 0.00 | 92 | 1025.8 |
| 20260905141220 | 12 | 91 | 0.0 | 0.0 | 0.00 | 0.18 | 0.00 | 92 | 1025.8 |
| 20260905140720 | 12 | 91 | 0.0 | 0.0 | 0.00 | 0.18 | 0.00 | 91 | 1025.8 |
| 20260905140222 | 12 | 91 | 0.0 | 0.0 | 0.00 | 0.20 | 0.00 | 91 | 1025.8 |
| 20260905135716 | 12 | 91 | 0.0 | 0.0 | 0.00 | 0.20 | 0.00 | 91 | 1025.8 |
| 20260905135214 | 12 | 90 | 0.0 | 0.0 | 0.00 | 0.20 | 0.00 | 91 | 1025.8 |
| 20260905134714 | 12 | 91 | 0.0 | 0.0 | 0.00 | 0.20 | 0.00 | 91 | 1025.7 |
| 20260905134215 | 12 | 90 | 0.0 | 0.0 | 0.00 | 0.20 | 0.00 | 91 | 1025.7 |
| 20260905133715 | 12 | 91 | 0.0 | 0.0 | 0.00 | 0.23 | 0.00 | 91 | 1025.7 |
| 20260905133214 | 12 | 91 | 0.0 | 0.0 | 0.00 | 0.23 | 0.00 | 91 | 1025.7 |
| 20260905132715 | 12 | 90 | 0.0 | 0.0 | 0.00 | 0.23 | 0.00 | 91 | 1025.6 |
| 20260905132213 | 12 | 90 | 0.0 | 0.0 | 0.00 | 0.23 | 0.00 | 91 | 1025.6 |
| 20260905131712 | 12 | 91 | 0.0 | 0.0 | 0.00 | 0.23 | 0.00 | 91 | 1025.6 |
| 20260905131214 | 12 | 90 | 0.0 | 0.0 | 0.00 | 0.23 | 0.00 | 91 | 1025.6 |
| 20260905130712 | 12 | 90 | 0.0 | 0.0 | 0.00 | 0.23 | 0.00 | 91 | 1025.6 |
| 20260905130213 | 12 | 91 | 0.0 | 0.0 | 0.00 | 0.23 | 0.00 | 91 | 1025.4 |
| 20260905125713 | 12 | 91 | 0.0 | 0.0 | 0.00 | 0.23 | 0.00 | 91 | 1025.5 |
| 20260905125207 | 12 | 90 | 0.0 | 0.0 | 0.00 | 0.23 | 0.00 | 91 | 1025.5 |
| 20260905124700 | 12 | 91 | 0.0 | 1.6 | 0.00 | 0.23 | 0.00 | 91 | 1025.4 |
| 20260905124156 | 12 | 90 | 0.0 | 1.6 | 0.00 | 0.23 | 0.00 | 91 | 1025.4 |
| 20260905123658 | 12 | 90 | 0.0 | 0.0 | 0.00 | 0.23 | 0.00 | 91 | 1025.3 |
| 20260905123156 | 12 | 91 | 0.0 | 0.0 | 0.00 | 0.23 | 0.00 | 91 | 1025.3 |
| 20260905122657 | 12 | 91 | 0.0 | 0.0 | 0.00 | 0.23 | 0.00 | 91 | 1025.2 |
| 20260905122157 | 12 | 91 | 0.0 | 0.0 | 0.00 | 0.23 | 0.00 | 91 | 1025.0 |
| 20260905121657 | 12 | 90 | 0.0 | 0.0 | 0.00 | 0.23 | 0.00 | 91 | 1025.0 |
| 20260905121153 | 12 | 91 | 0.0 | 0.0 | 0.00 | 0.23 | 0.00 | 91 | 1025.1 |
| 20260905120652 | 12 | 90 | 0.0 | 0.0 | 0.00 | 0.23 | 0.00 | 91 | 1025.0 |
| 20260905120153 | 12 | 90 | 0.0 | 0.0 | 0.00 | 0.23 | 0.00 | 91 | 1025.1 |
| 20260905115652 | 12 | 91 | 0.0 | 0.0 | 0.00 | 0.23 | 0.00 | 91 | 1025.1 |
| 20260905115152 | 12 | 91 | 0.0 | 0.0 | 0.00 | 0.23 | 0.00 | 91 | 1025.1 |
| 20260905114653 | 12 | 90 | 0.0 | 1.6 | 0.00 | 0.23 | 0.00 | 91 | 1025.0 |
| 20260905114148 | 12 | 91 | 0.0 | 1.6 | 0.00 | 0.23 | 0.00 | 91 | 1025.0 |
| 20260905113650 | 12 | 90 | 0.0 | 0.0 | 0.00 | 0.23 | 0.00 | 91 | 1025.0 |
| 20260905113148 | 12 | 91 | 0.0 | 0.0 | 0.00 | 0.23 | 0.00 | 91 | 1025.1 |
| 20260905112648 | 12 | 91 | 0.0 | 1.6 | 0.00 | 0.23 | 0.00 | 91 | 1025.1 |
| 20260905112147 | 12 | 91 | 0.0 | 1.6 | 0.00 | 0.23 | 0.00 | 91 | 1025.0 |
| 20260905111646 | 12 | 91 | 0.0 | 1.6 | 0.00 | 0.23 | 0.00 | 91 | 1025.0 |
| 20260905111146 | 12 | 90 | 0.0 | 1.6 | 0.00 | 0.23 | 0.00 | 91 | 1024.9 |
| 20260905110646 | 12 | 90 | 0.0 | 0.0 | 0.00 | 0.23 | 0.00 | 92 | 1025.0 |
| 20260905110147 | 12 | 90 | 0.0 | 0.0 | 0.00 | 0.23 | 0.00 | 92 | 1025.1 |
| 20260905105646 | 12 | 90 | 0.0 | 1.6 | 0.00 | 0.23 | 0.00 | 92 | 1025.1 |
| 20260905105147 | 12 | 90 | 0.0 | 1.6 | 0.00 | 0.23 | 0.00 | 92 | 1025.1 |
| 20260905104642 | 12 | 90 | 0.0 | 1.6 | 0.00 | 0.23 | 0.00 | 92 | 1025.2 |
| 20260905104139 | 12 | 91 | 0.0 | 1.6 | 0.00 | 0.23 | 0.00 | 92 | 1025.1 |
| 20260905103636 | 12 | 90 | 0.0 | 1.6 | 0.00 | 0.23 | 0.00 | 92 | 1025.2 |
| 20260905103135 | 12 | 90 | 0.0 | 1.6 | 0.00 | 0.23 | 0.00 | 92 | 1025.1 |
| 20260905102635 | 12 | 90 | 0.0 | 3.2 | 0.00 | 0.25 | 0.00 | 92 | 1025.1 |
| 20260905102130 | 12 | 90 | 0.0 | 3.2 | 0.00 | 0.25 | 0.00 | 92 | 1025.2 |
| 20260905101630 | 12 | 90 | 0.0 | 0.0 | 0.00 | 0.25 | 0.00 | 92 | 1025.2 |
| 20260905101131 | 12 | 90 | 0.0 | 0.0 | 0.00 | 0.25 | 0.00 | 92 | 1025.2 |
| 20260905100630 | 12 | 90 | 0.0 | 0.0 | 0.00 | 0.28 | 0.00 | 91 | 1025.2 |
| 20260905100128 | 12 | 90 | 0.0 | 0.0 | 0.00 | 0.28 | 0.00 | 91 | 1025.1 |
| 20260905095628 | 12 | 91 | 0.0 | 0.0 | 0.00 | 0.28 | 0.00 | 91 | 1025.1 |
| 20260905095127 | 12 | 91 | 0.0 | 0.0 | 0.00 | 0.30 | 0.00 | 91 | 1025.0 |
| 20260905094624 | 12 | 91 | 0.0 | 0.0 | 0.00 | 0.30 | 0.00 | 91 | 1025.1 |
| 20260905094122 | 12 | 90 | 0.0 | 0.0 | 0.00 | 0.30 | 0.00 | 91 | 1025.2 |
| 20260905093622 | 12 | 91 | 0.0 | 0.0 | 0.00 | 0.30 | 0.00 | 91 | 1025.1 |
| 20260905093122 | 12 | 90 | 0.0 | 0.0 | 0.00 | 0.30 | 0.00 | 91 | 1025.1 |
| 20260905092621 | 12 | 90 | 0.0 | 0.0 | 0.00 | 0.30 | 0.00 | 91 | 1025.2 |
| 20260905092120 | 12 | 90 | 0.0 | 0.0 | 0.00 | 0.30 | 0.00 | 90 | 1025.2 |
| 20260905091620 | 12 | 90 | 0.0 | 0.0 | 0.00 | 0.30 | 0.00 | 90 | 1025.2 |
| 20260905091121 | 12 | 90 | 0.0 | 0.0 | 0.00 | 0.30 | 0.00 | 90 | 1025.1 |
| 20260905090618 | 12 | 91 | 0.0 | 0.0 | 0.00 | 0.33 | 0.00 | 90 | 1025.2 |
| 20260905090116 | 12 | 90 | 0.0 | 0.0 | 0.00 | 0.33 | 0.00 | 90 | 1025.1 |
| 20260905085616 | 12 | 90 | 0.0 | 0.0 | 0.00 | 0.36 | 0.00 | 90 | 1025.0 |
| 20260905085114 | 12 | 90 | 0.0 | 0.0 | 0.00 | 0.36 | 0.00 | 90 | 1025.1 |
| 20260905084613 | 12 | 90 | 0.0 | 0.0 | 0.00 | 0.38 | 0.00 | 90 | 1025.1 |
| 20260905084115 | 12 | 91 | 0.0 | 0.0 | 0.00 | 0.41 | 0.00 | 90 | 1025.2 |
| 20260905083612 | 12 | 90 | 0.0 | 0.0 | 0.00 | 0.43 | 0.00 | 90 | 1025.1 |
| 20260905083110 | 12 | 91 | 0.0 | 0.0 | 0.00 | 0.43 | 0.00 | 90 | 1025.1 |
| 20260905082610 | 12 | 90 | 0.0 | 0.0 | 0.00 | 0.46 | 0.00 | 90 | 1025.0 |
| 20260905082108 | 13 | 90 | 0.0 | 0.0 | 0.00 | 0.46 | 0.00 | 90 | 1024.9 |
| 20260905081606 | 13 | 91 | 0.0 | 0.0 | 0.00 | 0.48 | 0.00 | 89 | 1025.0 |
| 20260905081104 | 13 | 90 | 0.0 | 3.2 | 0.00 | 0.48 | 0.00 | 89 | 1025.0 |
| 20260905080604 | 13 | 92 | 0.0 | 3.2 | 0.00 | 0.51 | 0.00 | 89 | 1024.8 |
| 20260905080104 | 13 | 91 | 0.0 | 4.8 | 0.00 | 0.51 | 0.00 | 89 | 1024.8 |
| 20260905075603 | 13 | 90 | 1.6 | 4.8 | 0.00 | 0.51 | 0.00 | 89 | 1024.7 |
| 20260905075059 | 13 | 90 | 0.0 | 3.2 | 0.00 | 0.51 | 0.00 | 89 | 1024.7 |
| 20260905074558 | 13 | 91 | 0.0 | 1.6 | 0.00 | 0.51 | 0.00 | 90 | 1024.6 |
| 20260905074058 | 13 | 91 | 0.0 | 3.2 | 0.00 | 0.51 | 0.00 | 90 | 1024.7 |
| 20260905073558 | 13 | 90 | 0.0 | 3.2 | 0.00 | 0.51 | 0.00 | 90 | 1024.7 |
| 20260905073058 | 13 | 90 | 0.0 | 3.2 | 0.00 | 0.51 | 0.00 | 90 | 1024.7 |
| 20260905072558 | 13 | 90 | 0.0 | 3.2 | 0.00 | 0.51 | 0.00 | 90 | 1024.7 |
| 20260905072052 | 13 | 91 | 0.0 | 4.8 | 0.00 | 0.51 | 0.00 | 90 | 1024.7 |
| 20260905071552 | 13 | 90 | 0.0 | 4.8 | 0.00 | 0.51 | 0.00 | 90 | 1024.7 |
| 20260905071052 | 13 | 89 | 0.0 | 3.2 | 0.00 | 0.51 | 0.00 | 90 | 1024.7 |
| 20260905070552 | 13 | 89 | 0.0 | 1.6 | 0.00 | 0.51 | 0.00 | 90 | 1024.7 |
| 20260905070052 | 13 | 89 | 0.0 | 1.6 | 0.00 | 0.51 | 0.00 | 90 | 1024.6 |
| 20260905065553 | 13 | 90 | 0.0 | 3.2 | 0.00 | 0.51 | 0.51 | 90 | 1024.6 |
| 20260905065047 | 13 | 89 | 0.0 | 4.8 | 0.00 | 0.51 | 0.51 | 90 | 1024.6 |
| 20260905064546 | 13 | 90 | 0.0 | 4.8 | 0.00 | 0.51 | 0.51 | 90 | 1024.5 |
| 20260905064046 | 13 | 80 | 0.0 | 3.2 | 0.00 | 0.51 | 0.51 | 89 | 1024.6 |
| 20260905063547 | 13 | 81 | 0.0 | 3.2 | 0.00 | 0.51 | 0.51 | 89 | 1024.5 |
| 20260905063046 | 13 | 80 | 1.6 | 4.8 | 0.00 | 0.51 | 0.51 | 89 | 1024.5 |
| 20260905062547 | 13 | 81 | 1.6 | 6.4 | 0.00 | 0.51 | 0.51 | 89 | 1024.3 |
| 20260905062045 | 13 | 77 | 1.6 | 6.4 | 0.00 | 0.51 | 0.51 | 89 | 1024.4 |
| 20260905061542 | 13 | 92 | 1.6 | 4.8 | 0.00 | 0.51 | 0.51 | 89 | 1024.3 |
| 20260905061040 | 13 | 90 | 1.6 | 4.8 | 0.00 | 0.51 | 0.51 | 89 | 1024.4 |
| 20260905060540 | 13 | 91 | 1.6 | 4.8 | 0.00 | 0.51 | 0.51 | 89 | 1024.3 |
| 20260905060040 | 13 | 90 | 1.6 | 6.4 | 0.00 | 0.51 | 0.51 | 89 | 1024.4 |
| 20260905055541 | 13 | 86 | 0.0 | 6.4 | 0.00 | 0.51 | 0.51 | 89 | 1024.4 |
| 20260905055034 | 13 | 87 | 1.6 | 4.8 | 0.00 | 0.51 | 0.51 | 89 | 1024.4 |
| 20260905054533 | 13 | 87 | 1.6 | 4.8 | 0.00 | 0.51 | 0.51 | 89 | 1024.3 |
| 20260905054032 | 13 | 90 | 1.6 | 6.4 | 0.00 | 0.51 | 0.51 | 90 | 1024.2 |
| 20260905053528 | 13 | 85 | 1.6 | 6.4 | 0.00 | 0.51 | 0.51 | 90 | 1024.3 |
| 20260905053028 | 13 | 82 | 1.6 | 3.2 | 0.00 | 0.51 | 0.51 | 89 | 1024.3 |
| 20260905052523 | 13 | 83 | 1.6 | 4.8 | 0.00 | 0.51 | 0.51 | 90 | 1024.1 |
| 20260905052021 | 13 | 82 | 1.6 | 4.8 | 0.00 | 0.51 | 0.51 | 90 | 1024.1 |
| 20260905051519 | 13 | 82 | 1.6 | 4.8 | 0.00 | 0.51 | 0.51 | 90 | 1024.1 |
| 20260905051016 | 13 | 84 | 1.6 | 6.4 | 0.00 | 0.51 | 0.51 | 90 | 1024.1 |
| 20260905050516 | 13 | 83 | 0.0 | 4.8 | 0.00 | 0.51 | 0.51 | 90 | 1024.1 |
| 20260905050011 | 13 | 84 | 0.0 | 4.8 | 0.00 | 0.51 | 0.51 | 90 | 1024.1 |
| 20260905045512 | 13 | 143 | 0.0 | 3.2 | 0.00 | 0.51 | 0.51 | 90 | 1024.1 |
| 20260905045013 | 13 | 143 | 0.0 | 3.2 | 0.00 | 0.51 | 0.51 | 90 | 1024.1 |
| 20260905044512 | 13 | 144 | 0.0 | 3.2 | 0.00 | 0.51 | 0.51 | 90 | 1024.1 |
| 20260905044010 | 13 | 143 | 0.0 | 0.0 | 0.00 | 0.51 | 0.51 | 90 | 1024.1 |
| 20260905043511 | 13 | 143 | 0.0 | 1.6 | 0.00 | 0.51 | 0.51 | 89 | 1024.0 |
| 20260905043006 | 13 | 143 | 0.0 | 1.6 | 0.00 | 0.51 | 0.51 | 89 | 1024.0 |
| 20260905042506 | 13 | 143 | 0.0 | 1.6 | 0.00 | 0.51 | 0.51 | 89 | 1024.0 |
| 20260905042004 | 13 | 143 | 0.0 | 4.8 | 0.00 | 0.51 | 0.51 | 89 | 1023.9 |
| 20260905041504 | 13 | 144 | 0.0 | 4.8 | 0.00 | 0.51 | 0.51 | 89 | 1023.7 |
| 20260905041004 | 13 | 148 | 0.0 | 3.2 | 0.00 | 0.51 | 0.51 | 89 | 1023.7 |
| 20260905040503 | 13 | 147 | 0.0 | 6.4 | 0.00 | 0.51 | 0.51 | 89 | 1023.6 |
| 20260905040003 | 13 | 148 | 0.0 | 6.4 | 0.00 | 0.51 | 0.51 | 89 | 1023.6 |
| 20260905035500 | 13 | 135 | 0.0 | 3.2 | 0.00 | 0.51 | 0.51 | 89 | 1023.5 |
| 20260905034958 | 13 | 136 | 0.0 | 3.2 | 0.00 | 0.51 | 0.51 | 89 | 1023.5 |
| 20260905034458 | 13 | 136 | 0.0 | 3.2 | 0.00 | 0.51 | 0.51 | 89 | 1023.6 |
| 20260905033958 | 14 | 136 | 0.0 | 1.6 | 0.00 | 0.51 | 0.51 | 89 | 1023.5 |
| 20260905033459 | 14 | 136 | 0.0 | 3.2 | 0.00 | 0.53 | 0.51 | 89 | 1023.4 |
| 20260905032954 | 14 | 135 | 0.0 | 3.2 | 0.00 | 0.53 | 0.51 | 89 | 1023.4 |
| 20260905032454 | 14 | 136 | 0.0 | 0.0 | 0.00 | 0.53 | 0.51 | 88 | 1023.3 |
| 20260905031952 | 14 | 135 | 0.0 | 0.0 | 0.00 | 0.53 | 0.51 | 88 | 1023.3 |
| 20260905031451 | 14 | 135 | 0.0 | 0.0 | 0.00 | 0.53 | 0.51 | 88 | 1023.3 |
| 20260905030952 | 14 | 135 | 0.0 | 1.6 | 0.00 | 0.53 | 0.51 | 88 | 1023.2 |
| 20260905030451 | 14 | 135 | 0.0 | 3.2 | 0.00 | 0.56 | 0.51 | 88 | 1023.3 |
| 20260905025950 | 14 | 135 | 0.0 | 3.2 | 0.00 | 0.56 | 0.51 | 88 | 1023.3 |
| 20260905025450 | 15 | 107 | 0.0 | 3.2 | 0.00 | 0.56 | 0.51 | 88 | 1023.0 |
| 20260905024949 | 15 | 107 | 1.6 | 11.3 | 0.00 | 0.56 | 0.51 | 88 | 1023.0 |
| 20260905024450 | 15 | 107 | 3.2 | 11.3 | 0.00 | 0.56 | 0.51 | 87 | 1023.0 |
| 20260905023951 | 15 | 110 | 3.2 | 9.7 | 0.00 | 0.58 | 0.51 | 87 | 1023.1 |
| 20260905023450 | 15 | 96 | 3.2 | 9.7 | 0.00 | 0.64 | 0.51 | 87 | 1023.1 |
| 20260905022951 | 15 | 117 | 3.2 | 8.0 | 0.00 | 0.69 | 0.51 | 86 | 1023.0 |
| 20260905022446 | 15 | 144 | 3.2 | 14.5 | 0.00 | 0.71 | 0.51 | 86 | 1023.0 |
| 20260905021946 | 15 | 123 | 4.8 | 14.5 | 0.00 | 0.71 | 0.51 | 85 | 1023.0 |
| 20260905021446 | 16 | 100 | 3.2 | 11.3 | 0.00 | 0.74 | 0.51 | 84 | 1023.0 |
| 20260905020946 | 16 | 103 | 3.2 | 17.7 | 0.00 | 0.74 | 0.51 | 83 | 1023.0 |
| 20260905020447 | 16 | 115 | 4.8 | 17.7 | 0.00 | 0.74 | 0.51 | 82 | 1023.0 |
| 20260905015943 | 16 | 124 | 4.8 | 19.3 | 0.00 | 0.74 | 0.51 | 81 | 1022.9 |
| 20260905015445 | 16 | 114 | 4.8 | 19.3 | 0.00 | 0.74 | 0.51 | 80 | 1023.0 |
| 20260905014941 | 16 | 101 | 4.8 | 17.7 | 0.00 | 0.74 | 0.51 | 80 | 1023.0 |
| 20260905014440 | 17 | 113 | 6.4 | 16.1 | 0.00 | 0.74 | 0.51 | 80 | 1023.0 |
| 20260905013940 | 17 | 213 | 6.4 | 22.5 | 0.00 | 0.74 | 0.51 | 81 | 1023.0 |
| 20260905013439 | 17 | 135 | 6.4 | 22.5 | 0.00 | 0.74 | 0.51 | 82 | 1023.0 |
| 20260905012941 | 17 | 138 | 6.4 | 14.5 | 0.00 | 0.74 | 0.51 | 81 | 1022.9 |
| 20260905012438 | 17 | 79 | 3.2 | 14.5 | 0.00 | 0.74 | 0.51 | 79 | 1022.8 |
| 20260905011939 | 17 | 105 | 3.2 | 11.3 | 0.00 | 0.74 | 0.51 | 77 | 1022.7 |
| 20260905011437 | 17 | 138 | 3.2 | 11.3 | 0.00 | 0.74 | 0.51 | 79 | 1022.7 |
| 20260905010934 | 18 | 117 | 3.2 | 8.0 | 0.00 | 0.74 | 0.51 | 82 | 1022.7 |
| 20260905010435 | 18 | 105 | 3.2 | 8.0 | 0.00 | 0.74 | 0.51 | 83 | 1022.7 |
| 20260905005933 | 18 | 85 | 3.2 | 12.9 | 0.00 | 0.76 | 0.51 | 82 | 1022.7 |
| 20260905005434 | 18 | 66 | 3.2 | 12.9 | 0.00 | 0.76 | 0.51 | 81 | 1022.6 |
| 20260905004931 | 18 | 82 | 3.2 | 9.7 | 0.00 | 0.76 | 0.51 | 81 | 1022.6 |
| 20260905004433 | 18 | 72 | 3.2 | 6.4 | 0.00 | 0.76 | 0.51 | 81 | 1022.7 |
| 20260905003931 | 18 | 88 | 1.6 | 6.4 | 0.00 | 0.76 | 0.51 | 79 | 1022.7 |
| 20260905003432 | 18 | 151 | 3.2 | 11.3 | 0.00 | 0.76 | 0.51 | 77 | 1022.5 |
| 20260905002932 | 18 | 161 | 3.2 | 11.3 | 0.00 | 0.76 | 0.51 | 76 | 1022.4 |
| 20260905002427 | 18 | 195 | 4.8 | 11.3 | 0.00 | 0.76 | 0.51 | 78 | 1022.4 |
| 20260905001921 | 18 | 94 | 4.8 | 11.3 | 0.00 | 0.76 | 0.51 | 80 | 1022.4 |
| 20260905001423 | 18 | 74 | 3.2 | 11.3 | 0.00 | 0.76 | 0.51 | 81 | 1022.4 |
| 20260905000922 | 18 | 86 | 1.6 | 6.4 | 0.00 | 0.79 | 0.51 | 80 | 1022.4 |
| 20260905000421 | 18 | 97 | 1.6 | 6.4 | 0.00 | 0.84 | 0.51 | 80 | 1022.3 |
| 20260904235921 | 18 | 62 | 1.6 | 9.7 | 0.00 | 0.86 | 0.51 | 79 | 1022.3 |
| 20260904235423 | 18 | 117 | 1.6 | 9.7 | 0.00 | 0.89 | 0.51 | 77 | 1022.2 |
| 20260904234917 | 18 | 104 | 1.6 | 9.7 | 0.00 | 0.91 | 0.51 | 76 | 1022.1 |
| 20260904234417 | 18 | 138 | 1.6 | 6.4 | 0.00 | 0.91 | 0.51 | 78 | 1022.1 |
| 20260904233919 | 18 | 140 | 0.0 | 4.8 | 0.03 | 0.91 | 0.51 | 78 | 1022.1 |
| 20260904233417 | 18 | 186 | 3.2 | 12.9 | 0.03 | 0.91 | 0.51 | 76 | 1022.0 |
| 20260904232918 | 18 | 186 | 4.8 | 12.9 | 0.03 | 0.91 | 0.51 | 78 | 1022.1 |
| 20260904232419 | 18 | 154 | 3.2 | 12.9 | 0.03 | 0.91 | 0.51 | 78 | 1021.9 |
| 20260904231913 | 18 | 279 | 1.6 | 8.0 | 0.03 | 0.91 | 0.51 | 79 | 1022.0 |
| 20260904231413 | 18 | 79 | 1.6 | 8.0 | 0.03 | 0.91 | 0.51 | 79 | 1021.8 |
| 20260904230915 | 18 | 225 | 0.0 | 4.8 | 0.03 | 0.91 | 0.51 | 82 | 1021.9 |
| 20260904230414 | 18 | 106 | 0.0 | 4.8 | 0.03 | 0.91 | 0.51 | 82 | 1021.8 |
| 20260904225915 | 18 | 106 | 0.0 | 4.8 | 0.03 | 0.94 | 0.51 | 83 | 1021.8 |
| 20260904225414 | 17 | 109 | 1.6 | 4.8 | 0.05 | 0.97 | 0.51 | 85 | 1021.8 |
| 20260904224909 | 17 | 162 | 1.6 | 4.8 | 0.05 | 0.99 | 0.51 | 86 | 1021.8 |
| 20260904224409 | 17 | 176 | 1.6 | 3.2 | 0.08 | 0.99 | 0.51 | 86 | 1021.9 |
| 20260904223906 | 16 | 180 | 0.0 | 6.4 | 0.05 | 0.99 | 0.48 | 88 | 1021.8 |
| 20260904223405 | 16 | 179 | 1.6 | 6.4 | 0.05 | 0.99 | 0.48 | 87 | 1021.8 |
| 20260904222907 | 16 | 180 | 0.0 | 4.8 | 0.08 | 0.99 | 0.48 | 88 | 1021.9 |
| 20260904222405 | 16 | 180 | 0.0 | 4.8 | 0.08 | 0.99 | 0.48 | 88 | 1021.9 |
| 20260904221905 | 16 | 180 | 0.0 | 3.2 | 0.08 | 0.99 | 0.48 | 88 | 1021.8 |
| 20260904221405 | 16 | 181 | 0.0 | 3.2 | 0.08 | 0.99 | 0.48 | 88 | 1021.8 |
| 20260904220906 | 16 | 182 | 1.6 | 4.8 | 0.08 | 0.99 | 0.48 | 88 | 1021.8 |
| 20260904220359 | 15 | 182 | 1.6 | 4.8 | 0.08 | 0.99 | 0.48 | 88 | 1021.8 |
| 20260904215859 | 15 | 182 | 1.6 | 4.8 | 0.08 | 1.02 | 0.48 | 88 | 1021.9 |
| 20260904215359 | 15 | 184 | 1.6 | 4.8 | 0.05 | 0.99 | 0.46 | 88 | 1021.8 |
| 20260904214859 | 15 | 191 | 1.6 | 3.2 | 0.05 | 1.04 | 0.46 | 88 | 1021.8 |
| 20260904214359 | 15 | 191 | 0.0 | 1.6 | 0.03 | 1.07 | 0.46 | 88 | 1021.7 |
| 20260904213900 | 15 | 191 | 0.0 | 4.8 | 0.03 | 1.12 | 0.43 | 87 | 1021.8 |
| 20260904213357 | 15 | 192 | 0.0 | 4.8 | 0.03 | 1.14 | 0.43 | 87 | 1021.8 |
| 20260904212855 | 15 | 192 | 1.6 | 6.4 | 0.00 | 1.22 | 0.41 | 87 | 1021.8 |
| 20260904212353 | 15 | 192 | 3.2 | 9.7 | 0.00 | 1.27 | 0.41 | 86 | 1021.9 |